Back to catalog

SL-14 DEB

AlivePO
NORAD 25246·DEBRIS·🇷🇺 Russia

Launched Aug 18, 1987 from Plesetsk Cosmodrome

Loading…

Next Passes (next 24 hours)

TLE

FreshSource: Space-Track

Epoch: Sep 14, 2026, 09:33 UTC

1 25246U 87068BP  26257.39825624  .00000742  00000-0  33576-3 0  9999
2 25246  82.2473 233.4469 0079545 121.6009  31.2392 14.19234048469440

Track SL-14 DEB in real time with AllMySat

Download on the App Store